| time (UTC) | temp C | wind direction | speed KPH | gust KPH | rain 1hr cm | rain 24hr cm | rain mn cm | humidity % | barometer mb |
| 20260507081534 | -1 | 245 | 24.1 | 33.8 | 0.00 | 2.06 | 0.03 | 99 | 1002.5 |
| 20260507080033 | -1 | 245 | 25.7 | 37.0 | 0.00 | 2.06 | 0.03 | 99 | 1001.6 |
| 20260507074542 | -1 | 298 | 27.4 | 41.8 | 0.00 | 2.11 | 0.03 | 99 | 1001.6 |
| 20260507073033 | -1 | 335 | 24.1 | 33.8 | 0.00 | 2.11 | 0.03 | 99 | 1001.2 |
| 20260507071532 | -1 | 245 | 24.1 | 38.6 | 0.00 | 2.11 | 0.03 | 99 | 1002.1 |
| 20260507070034 | 0 | 293 | 29.0 | 40.2 | 0.00 | 2.11 | 0.03 | 99 | 1001.0 |
| 20260507064536 | 0 | 245 | 27.4 | 46.7 | 0.00 | 2.13 | 0.03 | 99 | 1001.5 |
| 20260507063035 | 0 | 245 | 27.4 | 43.5 | 0.00 | 2.13 | 0.03 | 99 | 1001.1 |
| 20260507061530 | 0 | 298 | 32.2 | 54.7 | 0.00 | 2.13 | 0.03 | 99 | 1001.5 |
| 20260507060031 | 0 | 245 | 30.6 | 48.3 | 0.00 | 2.13 | 0.03 | 99 | 1001.5 |
| 20260507054533 | 0 | 245 | 33.8 | 45.1 | 0.00 | 2.16 | 0.03 | 99 | 1001.2 |
| 20260507053033 | 0 | 289 | 29.0 | 41.8 | 0.00 | 2.16 | 0.03 | 99 | 1001.6 |
| 20260507051538 | 0 | 245 | 27.4 | 40.2 | 0.03 | 2.16 | 0.03 | 99 | 1001.9 |
| 20260507050039 | 0 | 329 | 24.1 | 40.2 | 0.03 | 2.16 | 0.03 | 99 | 1001.8 |
| 20260507044532 | 0 | 303 | 29.0 | 46.7 | 0.03 | 2.16 | 0.03 | 99 | 1001.8 |
| 20260507043030 | 1 | 330 | 24.1 | 38.6 | 0.05 | 2.16 | 0.03 | 99 | 1002.1 |
| 20260507041532 | 1 | 296 | 29.0 | 51.5 | 0.08 | 2.13 | 0.00 | 99 | 1002.5 |
| 20260507040033 | 1 | 245 | 35.4 | 49.9 | 0.08 | 2.13 | 0.00 | 99 | 1002.7 |
| 20260507034550 | 1 | 245 | 27.4 | 46.7 | 0.15 | 2.13 | 2.13 | 99 | 1002.9 |
| 20260507033036 | 1 | 321 | 33.8 | 48.3 | 0.15 | 2.11 | 2.11 | 99 | 1003.0 |
| 20260507031531 | 1 | 245 | 30.6 | 45.1 | 0.15 | 2.06 | 2.06 | 99 | 1003.0 |
| 20260507030030 | 1 | 245 | 27.4 | 41.8 | 0.23 | 2.06 | 2.06 | 99 | 1003.1 |
| 20260507024546 | 2 | 262 | 29.0 | 40.2 | 0.25 | 1.98 | 1.98 | 99 | 1003.3 |
| 20260507023029 | 2 | 245 | 20.9 | 29.0 | 0.25 | 1.96 | 1.96 | 99 | 1003.2 |
| 20260507021537 | 3 | 245 | 14.5 | 24.1 | 0.20 | 1.91 | 1.91 | 99 | 1003.4 |
| 20260507020033 | 4 | 245 | 19.3 | 27.4 | 0.10 | 1.80 | 1.80 | 99 | 1003.6 |
| 20260507014540 | 4 | 245 | 11.3 | 24.1 | 0.03 | 1.73 | 1.73 | 99 | 1003.6 |
| 20260507013034 | 5 | 245 | 11.3 | 19.3 | 0.03 | 1.70 | 1.70 | 99 | 1003.6 |
| 20260507011539 | 5 | 245 | 12.9 | 19.3 | 0.03 | 1.70 | 1.70 | 99 | 1003.9 |
| 20260507010034 | 5 | 285 | 12.9 | 22.5 | 0.05 | 1.70 | 1.70 | 99 | 1004.1 |
| 20260507004531 | 5 | 245 | 14.5 | 20.9 | 0.05 | 1.70 | 1.70 | 99 | 1004.3 |
| 20260507003032 | 5 | 245 | 6.4 | 14.5 | 0.13 | 1.68 | 1.68 | 99 | 1004.4 |
| 20260507001535 | 6 | 245 | 9.7 | 16.1 | 0.20 | 1.68 | 1.68 | 99 | 1004.4 |
| 20260507000032 | 5 | 286 | 11.3 | 19.3 | 0.30 | 1.65 | 1.65 | 99 | 1004.3 |
| 20260506234533 | 5 | 302 | 14.5 | 27.4 | 0.33 | 1.65 | 1.65 | 99 | 1004.5 |
| 20260506233032 | 5 | 282 | 17.7 | 27.4 | 0.25 | 1.55 | 1.55 | 99 | 1004.5 |
| 20260506231537 | 7 | 245 | 4.8 | 14.5 | 0.15 | 1.45 | 1.45 | 99 | 1004.2 |
| 20260506230032 | 8 | 245 | 4.8 | 20.9 | 0.08 | 1.32 | 1.32 | 100 | 1004.3 |
| 20260506224530 | 8 | 144 | 20.9 | 32.2 | 0.08 | 1.32 | 1.32 | 100 | 1004.0 |
| 20260506223031 | 8 | 142 | 22.5 | 32.2 | 0.05 | 1.32 | 1.30 | 99 | 1003.8 |
| 20260506221530 | 7 | 141 | 19.3 | 29.0 | 0.08 | 1.32 | 1.30 | 99 | 1004.2 |
| 20260506220034 | 7 | 245 | 25.7 | 33.8 | 0.05 | 1.30 | 1.27 | 99 | 1004.5 |
| 20260506214531 | 7 | 245 | 19.3 | 32.2 | 0.03 | 1.47 | 1.24 | 99 | 1004.8 |
| 20260506213032 | 7 | 245 | 20.9 | 30.6 | 0.08 | 1.47 | 1.24 | 99 | 1004.9 |
| 20260506211534 | 7 | 245 | 22.5 | 35.4 | 0.08 | 1.45 | 1.22 | 99 | 1004.9 |
| 20260506210031 | 7 | 148 | 16.1 | 27.4 | 0.10 | 1.45 | 1.22 | 99 | 1004.8 |
| 20260506204532 | 7 | 245 | 24.1 | 33.8 | 0.08 | 1.42 | 1.19 | 99 | 1004.9 |
| 20260506203029 | 7 | 245 | 20.9 | 27.4 | 0.10 | 1.40 | 1.17 | 99 | 1004.9 |
| 20260506201531 | 7 | 245 | 19.3 | 30.6 | 0.10 | 1.37 | 1.14 | 99 | 1004.9 |
| 20260506200033 | 7 | 174 | 17.7 | 30.6 | 0.13 | 1.32 | 1.12 | 99 | 1005.2 |
| 20260506194536 | 7 | 245 | 19.3 | 29.0 | 0.18 | 1.32 | 1.12 | 99 | 1005.2 |
| 20260506193033 | 7 | 177 | 17.7 | 30.6 | 0.18 | 1.30 | 1.07 | 99 | 1005.6 |
| 20260506191534 | 7 | 175 | 22.5 | 33.8 | 0.28 | 1.27 | 1.04 | 99 | 1005.7 |
| 20260506190032 | 7 | 245 | 29.0 | 40.2 | 0.30 | 1.22 | 0.99 | 99 | 1005.8 |
| 20260506184533 | 7 | 245 | 22.5 | 40.2 | 0.36 | 1.17 | 0.94 | 99 | 1005.8 |
| 20260506183030 | 7 | 144 | 17.7 | 25.7 | 0.43 | 1.12 | 0.89 | 99 | 1006.0 |
| 20260506181534 | 7 | 136 | 17.7 | 25.7 | 0.41 | 0.99 | 0.76 | 99 | 1005.7 |
| 20260506180032 | 7 | 129 | 17.7 | 24.1 | 0.33 | 0.91 | 0.69 | 99 | 1005.9 |
| 20260506174531 | 6 | 129 | 17.7 | 25.7 | 0.25 | 0.81 | 0.58 | 99 | 1006.0 |
| 20260506173030 | 6 | 125 | 17.7 | 29.0 | 0.15 | 0.69 | 0.46 | 99 | 1006.2 |
| 20260506171532 | 7 | 245 | 17.7 | 29.0 | 0.08 | 0.58 | 0.36 | 99 | 1006.1 |
| 20260506170030 | 7 | 137 | 19.3 | 30.6 | 0.10 | 0.58 | 0.36 | 99 | 1006.5 |
| 20260506164532 | 6 | 115 | 19.3 | 30.6 | 0.10 | 0.56 | 0.33 | 99 | 1006.7 |
| 20260506163032 | 7 | 140 | 22.5 | 33.8 | 0.08 | 0.53 | 0.30 | 99 | 1007.1 |
| 20260506161530 | 7 | 148 | 22.5 | 37.0 | 0.03 | 0.48 | 0.25 | 99 | 1007.4 |
| 20260506160033 | 7 | 118 | 22.5 | 35.4 | 0.03 | 0.48 | 0.25 | 99 | 1007.5 |
| 20260506154533 | 7 | 138 | 22.5 | 33.8 | 0.00 | 0.46 | 0.23 | 99 | 1007.6 |
| 20260506153041 | 7 | 127 | 24.1 | 33.8 | 0.00 | 0.46 | 0.23 | 99 | 1007.7 |
| 20260506151531 | 7 | 124 | 25.7 | 33.8 | 0.03 | 0.46 | 0.23 | 99 | 1007.6 |
| 20260506150030 | 7 | 133 | 25.7 | 33.8 | 0.08 | 0.46 | 0.23 | 99 | 1007.5 |
| 20260506144550 | 6 | 123 | 25.7 | 33.8 | 0.10 | 0.46 | 0.23 | 99 | 1007.5 |
| 20260506143031 | 6 | 114 | 24.1 | 32.2 | 0.13 | 0.46 | 0.23 | 99 | 1007.5 |
| 20260506141533 | 6 | 104 | 27.4 | 37.0 | 0.10 | 0.43 | 0.20 | 99 | 1008.0 |
| 20260506140050 | 6 | 94 | 22.5 | 35.4 | 0.05 | 0.38 | 0.15 | 99 | 1008.2 |
| 20260506134534 | 5 | 119 | 24.1 | 35.4 | 0.03 | 0.36 | 0.13 | 99 | 1007.7 |
| 20260506133032 | 5 | 150 | 24.1 | 35.4 | 0.00 | 0.33 | 0.10 | 99 | 1007.5 |
| 20260506131542 | 5 | 112 | 22.5 | 35.4 | 0.00 | 0.33 | 0.10 | 99 | 1007.9 |
| 20260506130034 | 5 | 113 | 24.1 | 35.4 | 0.00 | 0.33 | 0.10 | 99 | 1008.0 |
| 20260506124533 | 5 | 124 | 25.7 | 35.4 | 0.00 | 0.33 | 0.10 | 98 | 1008.2 |
| 20260506123039 | 5 | 144 | 24.1 | 33.8 | 0.00 | 0.33 | 0.10 | 98 | 1008.0 |
| 20260506121530 | 5 | 119 | 22.5 | 32.2 | 0.00 | 0.33 | 0.10 | 98 | 1008.2 |
| 20260506120033 | 5 | 119 | 16.1 | 25.7 | 0.00 | 0.33 | 0.10 | 98 | 1008.5 |
| 20260506114531 | 6 | 106 | 12.9 | 19.3 | 0.00 | 0.33 | 0.10 | 97 | 1008.6 |
| 20260506113037 | 6 | 142 | 12.9 | 20.9 | 0.00 | 0.33 | 0.10 | 96 | 1008.6 |
| 20260506111533 | 6 | 245 | 16.1 | 22.5 | 0.00 | 0.33 | 0.10 | 96 | 1008.5 |
| 20260506110040 | 6 | 155 | 16.1 | 25.7 | 0.00 | 0.33 | 0.10 | 95 | 1008.5 |
| 20260506104530 | 6 | 245 | 16.1 | 20.9 | 0.00 | 0.33 | 0.10 | 95 | 1008.5 |
| 20260506103033 | 6 | 245 | 9.7 | 24.1 | 0.00 | 0.33 | 0.10 | 95 | 1008.8 |
| 20260506101534 | 5 | 213 | 12.9 | 22.5 | 0.00 | 0.33 | 0.10 | 98 | 1008.6 |
| 20260506100037 | 5 | 237 | 16.1 | 25.7 | 0.00 | 0.33 | 0.10 | 98 | 1008.6 |
| 20260506094534 | 5 | 245 | 12.9 | 30.6 | 0.00 | 0.33 | 0.10 | 99 | 1008.7 |
| 20260506093035 | 5 | 245 | 17.7 | 29.0 | 0.00 | 0.33 | 0.10 | 99 | 1008.5 |
| 20260506091532 | 5 | 245 | 20.9 | 27.4 | 0.00 | 0.33 | 0.10 | 99 | 1008.7 |
| 20260506090037 | 5 | 245 | 16.1 | 22.5 | 0.00 | 0.33 | 0.10 | 99 | 1008.2 |
| 20260506084537 | 5 | 245 | 22.5 | 32.2 | 0.00 | 0.33 | 0.10 | 99 | 1008.1 |
| 20260506083034 | 5 | 287 | 20.9 | 30.6 | 0.00 | 0.33 | 0.10 | 99 | 1008.6 |